Clemson, SC

3:12 AM EDT on October 01, 2016 (GMT -0400)
Oconee County Regional

Weather History for KCEU - March, 2013

Change the Weather History Date:

Monday, March 11, 2013

  Actual Average Record
Temperature  
Mean Temperature 58 °F -  
Max Temperature 66 °F 63 °F 85 °F (1974)
Min Temperature 51 °F 37 °F 19 °F (1934)
Degree Days  
Heating Degree Days 6    
Growing Degree Days 8 (Base 50)    
Moisture  
Dew Point 49 °F    
Average Humidity 76    
Maximum Humidity 89    
Minimum Humidity 54    
Precipitation  
Precipitation 0.86 in - - ()
Sea Level Pressure  
Sea Level Pressure 29.96 in    
Wind  
Wind Speed 3 mph (SE)    
Max Wind Speed 10 mph    
Max Gust Speed 17 mph    
Visibility 6 miles    
Events Fog , Rain    
Averages and records for this station are not official NWS values.
T = Trace of Precipitation, MM = Missing Value Source: NWS Daily Summary

Daily Weather History Graph

Daily Weather History Graph

Search for Another Location

Airport or City:

Trip Planner

Search our weather history database for the weather conditions in past years. The results will help you decide how hot, cold, wet, or windy it might be!

Date:

Astronomy

Mar. 11, 2013 Rise Set
Actual Time 7:47 AM EDT 7:36 PM EDT
Civil Twilight 7:22 AM EDT 8:01 PM EDT
Nautical Twilight 6:52 AM EDT 8:30 PM EDT
Astronomical Twilight 6:23 AM EDT 8:59 PM EDT
Moon 7:21 AM EDT (3/11) 7:44 PM EDT (3/11)
Length of Visible Light 12h 39m
Length of Day
11h 48m
Waning Crescent, 0% of the Moon is Illuminated
Mar 11
Waning Crescent
Mar 11
New
Mar 19
First Quarter
Mar 27
Full
Apr 3
Last Quarter

Hourly Weather History & Observations

Time (EDT) Temp. Dew Point Humidity Pressure Visibility Wind Dir Wind Speed Gust Speed Precip Events Conditions
12:54 AM 55.9 °F 39.9 °F 55% 30.14 in 10.0 mi SE 3.5 mph - N/A   Clear
1:54 AM 55.0 °F 43.0 °F 64% 30.14 in 10.0 mi SSE 3.5 mph - N/A   Clear
2:54 AM 52.0 °F 42.1 °F 69% 30.13 in 10.0 mi Calm Calm - N/A   Mostly Cloudy
3:54 AM 51.1 °F 43.0 °F 74% 30.12 in 10.0 mi Calm Calm - N/A   Mostly Cloudy
4:40 AM 53.6 °F 44.6 °F 72% 30.11 in 10.0 mi Calm Calm - N/A   Overcast
4:54 AM 52.0 °F 44.1 °F 74% 30.09 in 10.0 mi Calm Calm - N/A   Overcast
5:54 AM 52.0 °F 44.1 °F 74% 30.08 in 10.0 mi Calm Calm - N/A   Overcast
6:52 AM 51.8 °F 42.8 °F 71% 30.10 in 10.0 mi Variable 3.5 mph - N/A   Overcast
6:54 AM 52.0 °F 43.0 °F 71% 30.09 in 10.0 mi Calm Calm - N/A   Overcast
7:54 AM 51.1 °F 43.0 °F 74% 30.11 in 10.0 mi NNW 3.5 mph - N/A   Overcast
8:54 AM 52.0 °F 43.0 °F 71% 30.10 in 10.0 mi Calm Calm - N/A   Overcast
9:54 AM 53.1 °F 44.1 °F 71% 30.08 in 10.0 mi Calm Calm - N/A   Overcast
10:07 AM 53.6 °F 44.6 °F 72% 30.08 in 10.0 mi SE 4.6 mph - N/A   Overcast
10:54 AM 55.0 °F 44.1 °F 67% 30.06 in 10.0 mi SSE 4.6 mph - N/A   Overcast
11:07 AM 55.4 °F 44.6 °F 67% 30.07 in 10.0 mi Variable 5.8 mph - N/A   Overcast
11:15 AM 55.4 °F 44.6 °F 67% 30.07 in 10.0 mi Variable 3.5 mph - N/A   Overcast
11:29 AM 55.4 °F 44.6 °F 67% 30.06 in 10.0 mi SE 5.8 mph - N/A   Overcast
11:54 AM 57.9 °F 46.0 °F 65% 30.04 in 10.0 mi Variable 3.5 mph - N/A   Overcast
12:54 PM 62.1 °F 48.0 °F 60% 30.01 in 10.0 mi South 8.1 mph - N/A   Overcast
1:54 PM 64.0 °F 48.9 °F 58% 29.96 in 10.0 mi Variable 4.6 mph - N/A   Overcast
2:54 PM 64.9 °F 48.9 °F 56% 29.90 in 10.0 mi SE 6.9 mph - N/A   Mostly Cloudy
3:54 PM 66.0 °F 48.9 °F 54% 29.89 in 10.0 mi SSE 8.1 mph 17.3 mph N/A   Overcast
4:54 PM 66.0 °F 48.9 °F 54% 29.86 in 10.0 mi SSE 4.6 mph - N/A   Overcast
5:54 PM 63.0 °F 52.0 °F 67% 29.85 in 6.0 mi SSE 5.8 mph - 0.01 in Rain Light Rain
6:54 PM 59.0 °F 54.0 °F 83% 29.87 in 3.0 mi West 3.5 mph - 0.06 in Rain Rain
6:58 PM 59.0 °F 53.6 °F 82% 29.87 in 1.8 mi Calm Calm - 0.02 in Rain Heavy Rain
7:09 PM 59.0 °F 53.6 °F 82% 29.86 in 3.0 mi Calm Calm - 0.04 in Rain Rain
7:54 PM 59.0 °F 54.0 °F 83% 29.87 in 7.0 mi West 10.4 mph - 0.07 in Rain Rain
8:11 PM 59.0 °F 53.6 °F 82% 29.88 in 2.0 mi WNW 9.2 mph - 0.14 in Rain Heavy Rain
8:40 PM 57.2 °F 53.6 °F 88% 29.89 in 3.0 mi NW 4.6 mph - 0.30 in Rain Heavy Rain
8:54 PM 57.9 °F 54.0 °F 87% 29.87 in 3.0 mi Calm Calm - 0.35 in Rain Rain
9:03 PM 57.2 °F 53.6 °F 88% 29.88 in 1.8 mi Calm Calm - 0.03 in Rain Rain
9:17 PM 57.2 °F 53.6 °F 88% 29.88 in 0.8 mi Calm Calm - 0.08 in Rain Rain
9:29 PM 57.2 °F 53.6 °F 88% 29.88 in 1.2 mi Calm Calm - 0.11 in Rain Heavy Rain
9:49 PM 57.2 °F 53.6 °F 88% 29.87 in 0.8 mi ENE 3.5 mph - 0.18 in Rain Rain
9:51 PM 57.2 °F 53.6 °F 88% 29.87 in 1.0 mi Calm Calm - 0.18 in Rain Rain
9:54 PM 57.0 °F 54.0 °F 89% 29.86 in 1.2 mi ENE 3.5 mph - 0.19 in Rain Rain
10:03 PM 57.2 °F 53.6 °F 88% 29.87 in 1.0 mi Calm Calm - 0.02 in Rain Rain
10:30 PM 57.2 °F 53.6 °F 88% 29.86 in 0.8 mi ENE 3.5 mph - 0.10 in Rain Rain
10:38 PM 57.2 °F 53.6 °F 88% 29.86 in 1.5 mi East 3.5 mph - 0.11 in Rain Light Rain
10:54 PM 57.0 °F 54.0 °F 89% 29.84 in 0.5 mi Calm Calm - 0.12 in Fog , Rain Light Rain
11:06 PM 57.2 °F 53.6 °F 88% 29.85 in 1.0 mi ESE 3.5 mph - 0.00 in Rain Light Rain
11:41 PM 57.2 °F 53.6 °F 88% 29.83 in 2.0 mi Variable 3.5 mph - 0.03 in Rain Light Rain
11:51 PM 57.2 °F 53.6 °F 88% 29.83 in 1.2 mi ESE 3.5 mph - 0.05 in Rain Rain
11:54 PM 57.0 °F 54.0 °F 89% 29.82 in 1.2 mi Calm Calm - 0.06 in Rain Rain